Погода в Демянске

Погода в Демянске : погода сейчас, прогноз погоды и архив. Всё, что Вы хотите узнать о погоде в Демянске!

Поиск расширенной информации на нашем сайте:

Другие новости

Новости СМИ2

Главная страница сайта

Новости сайта

03.07.2017

Напоминаем, что на нашем специализированном сайте Метеоцентр.Азия вы можете получить высокодетализированные автоматические прогнозы погоды по пунктам России, СНГ и мира в авиационном формате (включающие направление и скорость ветра, видимость, явления погоды, количество и форму облачности, нижнюю и верхнюю границу облачности).

Рекомендуем: Печать наклеек с логотипом - распродажа наклейки с логотипом rpkactive.com.ua.

Погода в Демянске - сегодня

Время (UTC), дата Ветер
(°,м/с) 
Видим.   Явления Облачность Т
(°С)
Тd
(°С)
f(%) Тe
(°С)
Pmin
(гПа)
dP
(гПа)
Po
(мм)
O2
(г/м3)
Тmin Tmax R s Состояние
почвы
18 21.09.18 120 (ЮВ) 20000 м    ясно 
+15.9 +15.3 96 +26  1014.5  -0.5  755  284    +25.9       
21 21.09.18 170 (Ю) н/о    н/о 
+19.2 +14.9 76 +28  1013.4  -1  755  281           
00 22.09.18 170 (Ю) н/о    н/о 
+18.2 +13.1 72 +24  1012.3  -1.1  754  282           
03 22.09.18 160 (Ю) н/о    н/о 
+17.3 +12.3 72 +22  1010.2  -2.1  752  283  +14.8         
06 22.09.18 170 (Ю) 20000 м    ясно 
+19.6 +12.5 64 +26  1007.9  -2.3  751  280  +14.8         
09 22.09.18 170 (Ю) н/о    н/о 
+24.2 +12.6 48 +29  1005.8  -1.9  749  275           
15 22.09.18 300 (СЗ) 1{12}  н/о    н/о 
+12.4 +10.4 88 +16  1009.4  4.4  752  288         
21 22.09.18 210 (ЮЗ) н/о    н/о 
+9.9 +8.8 93 +11  1008.5  -0.6  751  290           
00 23.09.18 210 (ЮЗ) н/о    н/о 
+9.9 +9 94 +10  1007.6  -0.9  750  290           
03 23.09.18 220 (ЮЗ) н/о    н/о 
+9.9 +9 94 +11  1006.3  -1.3  749  290  +9.7       
09 23.09.18 260 (З) н/о    н/о 
+12.2 +7.6 73 +12  1005.6  -0.5  749  287           
12 23.09.18 240 (ЮЗ) н/о    н/о 
+12.5 +7.7 73 +13  1005.6  749  287           
15 23.09.18 200 (Ю) н/о    н/о 
+12.3 +6.8 69 +13  1005.3  -0.3  749  287      0.2     
21 23.09.18 210 (ЮЗ) н/о    н/о 
+7.9 +6.4 90 +9  1005.6  0.1  749  292           
00 24.09.18 180 (Ю) н/о    н/о 
+7.3 +6.3 93 +8  1005.1  -0.5  748  293           
03 24.09.18 180 (Ю) н/о    н/о 
+6.3 +5.1 92 +7  1005.3  0.2  748  294  +6.3    0.2     
09 24.09.18 160 (Ю) н/о    н/о 
+10.7 +6.9 77 +12  1003.9  -1.1  747  289           
12 24.09.18 100 (В) н/о    н/о 
+10.6 +7.7 82 +12  1002.7  -1.2  746  288           
15 24.09.18 тихо ()   н/о    н/о 
+9 +8.2 95 +9  1001.6  -1.1  746  289         
21 24.09.18 350 (С) н/о    н/о 
+7.8 +6.8 93 +8  1000.4  -0.3  745  291           
00 25.09.18 320 (СЗ) н/о    н/о 
+7.5 +6.5 93 +7  1001.2  0.8  745  291           
03 25.09.18 310 (СЗ) н/о    н/о 
+6.7 +5.5 92 +7  1003.6  2.3  747  293  +6.7       
09 25.09.18 310 (СЗ) н/о    н/о 
+8.7 +4.6 75 +8  1009  2.6  751  293           
15 25.09.18 310 (СЗ) н/о    н/о 
+9.3 +2.2 61 +9  1014.1  2.7  755  294           
18 25.09.18 290 (З) 20000 м    ясно 
+4.2 +1.7 84 +5  1017.5  3.2  757  300    +11.4       
Время (UTC), дата Ветер
(°,м/с) 
Видим.   Явления Облачность Т
(°С)
Тd
(°С)
f(%) Тe
(°С)
Pmin
(гПа)
dP
(гПа)
Po
(мм)
O2
(г/м3)
Тmin Tmax R s Состояние
почвы

Для получения пояснительной информации подведите курсор к названию столбца.

ПОГОДА в Демянске - архив

Всё, что Вы хотите узнать о погоде в Демянске - удобно и подробно!

Выберите нужную дату (начиная с 1 января 2015* года) и нажмите кнопку "Найти".
Будут отображены архивные сводки погоды по пункту Демянск, начиная с указанной даты.


Отображать данные в формате CSV (для использования в таблицах Excel)


Внимание! Наш архив погоды предназначен исключительно для личного некоммерческого использования в познавательных целях. Если Вам необходимы официальные справки о состоянии погоды (для производственных, юридических, коммерческих и т.п. целей), обращайтесь в органы Росгидромета.

*Примечание: данная дата относится к архиву по метеостанциям СССР (Россия, СНГ, Балтия).
Архив по метеостанциям Зарубежной Европы и Азии (кроме Китая) хранится 10 дней, по другим регионам земного шара (Китай, Африка, Америка, Австралия, Океания) - 1 день.

Демянск - район местоположения метеостанции


Название, широта, долгота, высота метеостанции:
Демянск 57.6°ш. 32.5°д. 62 м над ур. моря [Российская Федерация]

Дополнительная информация

В oтличие oт бoльшинства пoгoдных сайтoв мы публикуем пoдрoбную метеoинфoрмацию в детальнoм прoфессиoнальнoм фoрмате.

Характеристики температуры и влажнoсти вoздуха измеряются на высoте 2 м в тени вдали oт зданий и деревьев.
Скoрoсть ветра измеряется на высoте 10 м (на урoвне рoста челoвека скoрoсть ветра ниже в 1.5-2 раза). Если метеoстанция нахoдится в гoрoде или в лесу, тo скoрoсть ветра занижена на 2-4 м/с пo сравнению с oткрытым местoм. Скoрoсть ветра над акватoриями крупных рек и oзёр, а также на вершинах хoлмoв на 2-5 м/с выше, чем в oбычных услoвиях.
Атмoсфернoе давление в разных тoчках местнoсти мoжет значительнo oтличаться oт давления на метеoстанции, в зависимoсти oт услoвий рельефа (при пoдъёме на 10 м давление пoнижается примернo на 1 мм рт.ст.).